RH
23 22 21 21 21 22 25 28 31 33 35 36 39 37 36 37 38 38 32 30 32 33 35 33 37 39 40 43 49 63 68 59 57 59 64 79 82 100 100 99 100 98 99
33 32 33 33 32 32 33 34 35 36 36 35 33 35 38 34 27 23 24 27 26 30 33 34 33 38 41 46 54 58 68 64 65 65 68 77 90 98 84 99 96 98 99
37 37 36 36 36 35 34 32 32 32 31 31 28 19 18 22 23 21 30 34 34 38 42 48 43 48 53 52 60 65 72 77 78 82 96 98 98 100 100 98 94 96 88
41 40 40 39 32 26 24 23 22 20 16 13 17 23 26 19 22 40 42 39 44 47 52 52 48 46 46 50 56 61 76 92 88 88 100 99 96 99 96 98 91 39 11
51 49 40 29 27 24 17 13 12 13 19 26 30 21 24 31 43 41 38 40 46 51 54 49 54 52 56 58 59 71 82 95 99 96 93 98 98 93 82 28 11 6 3
59 45 33 32 27 21 17 22 24 27 33 30 27 36 44 46 44 42 42 47 53 54 54 30 19 32 43 60 71 76 82 87 89 94 99 96 86 68 24 7 3 2 2
62 44 40 36 30 31 33 32 32 38 32 32 44 46 52 49 48 49 46 37 16 8 8 7 6 6 4 4 4 6 10 20 31 24 14 10 7 5 3 2 2 7 15
69 55 46 46 45 42 42 43 42 38 35 45 54 59 55 53 45 18 10 9 9 10 10 8 7 6 4 3 3 2 2 2 2 2 2 2 2 2 2 3 12 16 15
75 64 54 54 56 52 52 45 38 38 50 61 63 58 49 19 12 10 9 10 12 13 14 14 12 10 8 5 4 2 2 2 2 2 2 2 2 2 6 15 18 17 17
75 65 60 59 57 54 45 40 50 61 67 63 59 28 14 12 11 9 9 11 12 15 17 17 17 14 11 7 5 3 2 2 2 2 2 2 4 10 17 19 19 20 23
63 64 58 56 58 56 56 62 66 67 64 33 15 14 13 12 10 9 10 11 13 15 18 19 19 18 14 9 5 3 2 2 3 3 3 6 12 18 21 21 22 25 27
75 68 64 66 69 67 65 68 65 40 22 15 14 15 14 14 14 14 15 16 18 20 21 21 20 18 14 10 5 3 3 3 4 5 8 14 18 22 24 25 27 29 29
82 75 75 76 72 69 63 34 27 19 15 14 15 16 16 17 18 20 22 23 25 24 24 22 20 16 15 10 6 4 3 4 6 9 14 20 23 25 27 29 32 33 34
82 78 81 77 74 46 29 27 21 16 15 15 16 17 18 20 22 24 26 28 30 29 26 23 19 15 13 10 8 5 4 4 7 11 17 23 27 30 33 36 38 38 40
88 81 84 78 42 30 28 24 20 16 16 16 17 18 20 22 25 28 32 34 35 32 28 25 20 16 13 9 8 8 7 6 8 11 18 27 33 38 41 43 43 44 45
85 84 81 59 29 30 27 24 19 17 16 16 17 19 21 24 28 32 37 40 39 36 33 30 29 23 15 10 7 7 7 8 10 14 20 28 38 45 49 52 52 51 48
80 78 58 30 31 30 27 24 21 19 18 18 19 20 23 27 31 36 41 44 44 42 40 40 36 28 22 15 8 6 8 9 12 16 22 29 38 50 57 60 58 56 60
61 47 32 30 32 30 28 26 24 22 21 21 21 22 25 28 33 39 44 48 48 49 49 47 44 38 30 19 8 6 9 13 16 19 26 35 42 49 61 63 66 70 70
45 34 30 31 33 31 30 28 27 25 24 24 23 24 26 29 33 40 47 52 54 55 56 56 57 53 41 24 10 8 13 19 20 21 29 43 49 52 62 70 75 75 72
51 34 30 30 33 33 32 31 30 27 26 25 24 25 26 29 33 40 47 53 55 54 52 60 64 63 54 27 10 8 15 24 22 20 31 47 50 58 71 76 77 75 68
68 48 32 30 31 33 34 33 31 30 28 26 25 25 26 27 31 36 43 49 51 50 48 56 68 67 61 29 10 9 18 27 24 22 34 50 54 67 76 77 77 66 63
96 64 44 35 32 32 32 34 34 33 31 29 28 27 26 27 29 32 37 41 44 44 42 57 72 71 64 30 10 11 22 30 28 25 35 50 58 70 75 76 77 68 66
100 99 99 98 95 83 75 44 34 34 34 31 30 28 26 27 28 30 33 35 37 37 52 74 76 74 63 27 11 13 25 33 34 32 36 46 58 76 78 78 80 76 72
92 97 99 99 99 97 97 97 81 44 36 33 61 84 28 34 42 28 30 31 32 42 72 80 77 76 57 21 11 14 26 32 36 38 37 41 47 71 81 80 83 86 84
99 99 98 97 97 98 97 97 97 96 89 67 86 95 73 84 85 34 28 29 31 45 75 81 77 75 52 19 11 17 28 32 34 43 45 43 45 51 68 80 88 91 90
100 100 99 99 99 98 97 97 97 96 96 96 96 96 96 96 94 36 30 31 38 46 86 84 79 76 53 22 12 21 33 34 35 39 44 49 52 54 57 63 74 84 87
Wind_Speed
27 28 29 29 29 30 31 31 31 32 32 32 32 31 32 32 32 32 32 33 32 32 33 34 34 35 36 37 39 38 36 33 33 34 33 33 34 32 29 20 27 26 27
26 28 29 29 29 30 31 32 33 33 33 31 30 30 30 30 30 30 29 27 26 29 31 31 31 31 32 32 30 30 28 30 31 31 33 33 32 26 32 26 32 28 21
26 27 28 28 28 28 28 28 28 28 27 26 26 25 25 25 26 25 22 24 28 30 30 31 30 32 31 27 23 22 25 28 30 32 29 33 32 36 27 30 26 23 23
25 26 25 24 23 22 22 23 24 24 22 21 21 21 22 22 21 20 20 23 26 27 27 26 25 26 26 24 20 22 24 25 25 26 28 30 31 27 28 25 25 25 26
23 22 22 20 19 19 19 19 19 18 18 17 18 17 17 17 17 16 19 20 18 18 18 17 20 18 19 20 18 18 21 21 26 30 30 24 21 20 22 24 28 29 30
20 19 18 18 18 17 17 16 16 15 15 15 14 14 12 12 12 13 11 10 9 7 6 6 10 10 9 10 12 13 14 15 14 15 16 18 19 25 30 30 29 24 16
19 19 18 17 16 15 15 14 15 14 13 12 12 12 11 10 7 4 0 4 3 5 8 11 13 14 15 16 17 20 21 22 23 25 27 29 30 30 29 26 18 13 14
19 20 19 18 17 17 16 15 15 14 13 11 9 9 8 4 5 5 3 2 5 7 10 12 14 16 18 20 21 23 24 25 26 27 29 29 28 26 20 12 12 14 16
20 19 19 18 17 16 15 13 13 12 10 8 8 8 7 8 4 2 1 4 6 9 12 14 16 18 19 21 22 23 24 24 24 25 24 23 19 13 11 12 13 14 17
19 18 16 15 14 12 13 12 12 10 10 11 10 10 7 4 2 2 4 6 9 12 14 15 18 20 21 22 23 23 24 23 22 21 18 13 10 11 13 14 15 16 17
16 16 14 13 12 13 13 12 13 12 12 12 10 7 5 3 3 4 6 8 10 13 16 18 19 20 21 22 23 23 23 22 20 17 12 11 13 14 16 17 17 17 18
15 12 14 14 13 14 15 14 13 13 12 10 8 6 5 4 5 6 8 11 13 15 17 18 19 21 22 22 23 23 23 21 18 16 15 16 18 19 20 20 20 19 19
14 13 14 16 16 16 15 14 13 12 11 9 8 6 5 5 6 8 11 12 14 16 17 18 19 20 20 21 22 22 22 20 18 17 19 20 22 23 23 23 22 21 20
16 16 17 18 17 15 14 13 12 12 11 10 8 7 6 7 9 10 12 13 15 16 17 18 19 20 21 21 22 22 21 20 20 20 22 23 24 25 26 26 25 24 22
18 19 19 19 18 17 15 13 13 13 12 10 8 8 8 10 11 11 13 14 15 16 17 18 19 19 21 22 22 22 22 22 22 23 25 26 26 27 27 28 27 25 24
18 20 20 19 17 15 14 15 14 13 11 9 9 10 10 11 12 13 14 15 16 17 18 19 19 20 21 22 23 23 24 24 24 25 27 28 28 29 28 28 28 26 25
18 19 19 18 16 16 16 15 14 13 11 11 11 12 12 13 13 14 15 16 17 18 18 19 20 21 22 24 24 25 26 26 26 27 28 29 29 28 27 25 26 26 26
17 18 19 19 18 17 17 16 14 14 13 13 14 14 14 14 14 15 17 18 19 19 20 21 22 23 24 25 26 26 26 27 27 27 27 27 26 26 25 25 25 26 27
16 18 19 19 19 19 17 16 16 16 15 16 16 16 16 16 16 17 18 18 20 20 22 23 25 25 26 27 28 27 28 28 28 26 25 24 24 23 22 23 24 26 26
18 20 21 21 21 20 19 19 19 18 18 18 18 18 18 18 18 19 19 19 20 22 24 27 28 27 27 28 29 28 29 29 27 26 23 21 21 21 22 23 24 24 24
21 23 23 24 23 23 23 22 21 21 21 20 20 20 20 20 21 21 21 22 23 25 27 29 31 29 28 29 29 29 29 28 27 25 22 21 21 21 23 24 24 25 25
22 24 24 25 26 26 25 26 26 24 24 23 23 23 23 22 23 23 23 24 25 27 29 31 31 30 29 29 30 29 28 27 26 25 21 21 22 23 23 24 25 26 26
25 25 27 28 30 32 32 29 28 28 27 25 25 25 25 24 24 25 25 26 27 29 32 33 30 29 30 30 30 30 28 26 25 25 23 23 23 24 25 26 26 27 28
30 35 31 27 28 29 31 33 32 31 30 29 32 29 27 25 27 26 26 27 28 30 34 33 30 28 29 31 31 31 29 27 26 26 26 25 26 27 28 29 29 30 31
29 30 31 33 32 32 31 32 34 35 35 35 42 35 31 32 28 28 28 28 28 32 35 33 30 29 30 30 31 31 30 29 28 28 28 28 28 29 31 32 32 32 33
30 29 31 33 34 35 34 34 33 33 34 37 33 32 35 31 26 27 28 28 30 33 34 32 31 31 30 31 31 30 30 30 30 30 31 30 30 30 32 33 33 34 34
Wind_Direction
252 253 254 254 255 256 258 260 263 264 265 266 269 270 269 270 273 274 275 276 278 282 286 286 286 286 289 290 288 285 283 278 279 282 288 288 289 292 303 290 282 291 285
255 255 256 256 258 260 262 263 264 266 267 268 268 268 269 270 272 274 275 278 284 286 288 289 287 289 292 292 289 285 281 274 279 278 278 283 286 287 295 287 293 291 281
262 260 260 261 261 261 262 263 264 263 263 263 265 265 266 269 271 271 276 286 287 288 289 290 287 289 291 290 286 283 278 278 276 277 281 281 279 291 273 293 284 283 281
265 262 260 260 258 258 260 261 260 258 256 257 261 263 267 269 267 275 286 287 288 288 290 291 287 289 286 287 294 294 285 282 280 286 273 283 285 272 284 281 282 286 289
262 256 253 252 255 259 259 255 251 250 252 255 261 265 267 266 274 284 287 291 291 290 293 291 300 297 297 292 294 295 295 295 283 285 281 274 273 277 281 286 291 291 289
256 249 248 252 255 255 250 249 249 248 254 255 257 258 268 275 277 285 292 290 297 308 320 20 17 15 348 333 319 310 307 300 296 291 284 277 273 281 286 288 287 283 271
253 246 244 249 251 247 246 245 246 250 245 248 257 260 261 266 272 274 289 99 71 13 354 349 342 334 329 320 310 301 296 291 287 285 284 284 283 282 284 284 271 254 264
254 243 244 248 250 248 250 248 244 234 238 253 251 242 239 204 168 150 129 43 6 354 346 340 332 330 329 323 317 308 302 296 292 292 289 286 285 286 281 256 254 263 272
251 240 241 247 250 248 246 233 226 231 239 219 210 195 179 173 171 145 343 338 344 339 338 337 333 331 328 323 321 318 312 307 303 297 293 291 285 266 248 251 258 270 281
239 235 240 249 239 229 222 214 221 202 183 181 180 174 175 181 214 271 312 326 331 329 328 328 329 328 326 326 323 321 318 314 310 304 295 281 256 250 255 259 262 269 274
236 235 237 219 209 206 201 189 178 171 176 176 176 180 193 221 260 295 313 318 320 322 324 325 325 324 325 326 326 324 323 319 315 307 291 270 266 269 267 267 269 270 275
225 223 202 199 191 181 172 169 172 175 182 185 191 203 222 247 278 300 311 315 318 318 319 321 323 326 328 328 327 327 325 321 314 300 285 279 278 276 272 272 274 277 279
210 194 190 184 180 176 174 176 181 186 191 201 214 228 247 274 295 306 307 310 316 317 318 320 322 324 326 327 327 326 325 318 307 294 287 284 282 279 277 277 278 279 282
200 188 184 183 182 181 185 188 191 198 205 216 228 244 267 285 296 302 308 314 316 318 319 320 323 325 326 327 328 327 323 316 305 295 289 287 286 284 283 282 281 283 285
193 188 185 186 188 191 195 197 204 210 216 226 240 260 277 288 294 301 306 312 316 318 320 321 322 324 324 325 325 325 321 316 308 301 294 291 288 286 285 284 284 285 286
183 184 186 192 197 201 205 210 214 219 226 238 253 267 277 284 290 298 305 312 315 316 316 318 321 322 323 324 324 323 320 317 311 304 298 294 292 290 289 288 287 287 287
185 189 194 200 206 211 214 218 224 229 239 250 259 266 274 282 290 300 307 312 313 312 315 318 318 320 323 324 323 323 321 317 311 305 300 297 295 294 292 289 290 291 291
204 203 205 209 215 219 222 227 233 238 245 253 260 266 272 280 291 300 305 309 311 313 316 317 317 319 320 320 321 322 319 315 312 308 303 299 297 296 295 296 295 295 295
222 218 217 221 225 229 232 236 240 244 249 255 261 267 273 281 289 293 298 305 310 313 315 316 316 317 318 319 320 320 318 314 312 309 305 301 299 299 296 295 297 299 300
231 231 231 231 234 238 240 242 245 250 254 259 264 269 274 279 283 288 295 302 306 311 316 318 317 315 315 317 318 318 316 314 314 311 305 301 298 297 296 297 299 299 300
239 237 237 238 240 242 244 246 249 253 256 259 263 268 271 276 281 287 294 299 304 307 312 318 317 314 314 317 318 317 315 314 312 310 303 296 294 293 294 298 300 301 301
247 244 242 245 245 247 250 250 251 253 256 260 264 267 270 274 280 285 290 294 299 303 309 316 316 312 313 314 315 315 315 313 310 306 297 291 290 291 292 297 300 302 302
251 258 259 256 248 244 245 251 255 255 256 258 263 267 270 274 278 282 287 292 297 302 308 314 314 310 311 312 314 314 315 312 308 302 292 287 288 288 290 292 294 295 296
249 251 255 258 263 266 263 254 246 253 258 256 257 259 269 272 277 281 285 290 296 302 309 312 310 308 309 310 313 314 313 310 307 301 295 289 287 287 288 289 291 295 296
254 258 257 258 262 264 266 265 263 252 248 253 261 259 254 261 267 278 283 289 294 302 308 309 308 307 308 311 312 312 311 310 307 302 298 294 291 289 289 290 291 291 293
254 257 259 260 261 262 263 264 265 266 266 264 278 269 266 269 263 276 282 289 295 300 306 307 304 305 307 309 310 310 309 308 305 303 300 298 295 292 291 290 291 292 293